GW3789 Weather Reports


time (UTC)temp
C
wind
direction
speed
KPH
gust
KPH
rain 1hr
cm
rain 24hr
cm
rain mn
cm
humidity
%
barometer
mb
20260509214004 12 239 0.0 6.4 0.00 0.00 0.00 61 1013.3
20260509213504 12 179 1.6 4.8 0.00 0.00 0.00 60 1013.2
20260509213012 12 233 0.0 4.8 0.00 0.00 0.00 60 1013.3
20260509212506 12 121 1.6 4.8 0.00 0.00 0.00 61 1013.3
20260509212010 12 219 0.0 3.2 0.00 0.00 0.00 61 1013.4
20260509211515 12 224 0.0 3.2 0.00 0.00 0.00 61 1013.4
20260509211007 12 150 0.0 3.2 0.00 0.00 0.00 61 1013.4
20260509210510 12 170 0.0 4.8 0.00 0.00 0.00 61 1013.4
20260509210022 12 206 0.0 4.8 0.00 0.00 0.00 61 1013.4
20260509205508 13 173 0.0 4.8 0.00 0.00 0.00 61 1013.4
20260509205003 13 132 0.0 6.4 0.00 0.00 0.00 61 1013.4
20260509204504 13 261 0.0 6.4 0.00 0.00 0.00 61 1013.5
20260509204004 13 252 0.0 3.2 0.00 0.00 0.00 61 1013.6
20260509203502 13 257 0.0 3.2 0.00 0.00 0.00 61 1013.5
20260509203007 13 276 0.0 6.4 0.00 0.00 0.00 61 1013.5
20260509202504 13 284 1.6 6.4 0.00 0.00 0.00 61 1013.4
20260509202007 13 276 1.6 4.8 0.00 0.00 0.00 62 1013.4
20260509201510 13 285 3.2 4.8 0.00 0.00 0.00 61 1013.3
20260509201006 13 152 0.0 3.2 0.00 0.00 0.00 60 1013.2
20260509200507 13 124 0.0 8.0 0.00 0.00 0.00 59 1013.1
20260509200016 13 124 1.6 8.0 0.00 0.00 0.00 59 1013.0
20260509195508 13 141 4.8 8.0 0.00 0.00 0.00 59 1013.0
20260509195006 13 124 0.0 11.3 0.00 0.00 0.00 60 1012.8
20260509194519 13 137 3.2 11.3 0.00 0.00 0.00 60 1012.8
20260509194007 13 60 3.2 9.7 0.00 0.00 0.00 60 1012.6
20260509193513 13 101 3.2 9.7 0.00 0.00 0.00 61 1012.7
20260509193004 13 117 3.2 9.7 0.00 0.00 0.00 61 1012.6
20260509192503 14 124 3.2 8.0 0.00 0.00 0.00 61 1012.5
20260509192006 14 141 3.2 8.0 0.00 0.00 0.00 61 1012.6
20260509191509 14 132 3.2 6.4 0.00 0.00 0.00 62 1012.5
20260509191003 14 77 3.2 8.0 0.00 0.00 0.00 61 1012.5
20260509190506 14 133 3.2 9.7 0.00 0.00 0.00 62 1012.4
20260509190020 14 104 1.6 11.3 0.00 0.00 0.00 62 1012.4
20260509185508 14 119 4.8 11.3 0.00 0.00 0.00 62 1012.4
20260509185006 14 110 3.2 11.3 0.00 0.00 0.00 62 1012.5
20260509184525 15 142 1.6 4.8 0.00 0.00 0.00 63 1012.4
20260509184007 15 148 0.0 8.0 0.00 0.00 0.00 64 1012.4
20260509183508 15 115 3.2 8.0 0.00 0.00 0.00 63 1012.4
20260509183024 15 144 1.6 8.0 0.00 0.00 0.00 64 1012.3
20260509182507 15 128 1.6 4.8 0.00 0.00 0.00 64 1012.2
20260509182010 15 125 1.6 3.2 0.00 0.00 0.00 65 1012.2
20260509181525 15 122 1.6 3.2 0.00 0.00 0.00 64 1012.3
20260509181006 15 141 0.0 4.8 0.00 0.00 0.00 64 1012.3
20260509180503 15 135 1.6 4.8 0.00 0.00 0.00 63 1012.3
20260509180011 15 127 1.6 4.8 0.00 0.00 0.00 63 1012.3
20260509175503 15 136 1.6 11.3 0.00 0.00 0.00 63 1012.3
20260509175009 15 134 1.6 11.3 0.00 0.00 0.00 63 1012.3
20260509174516 15 115 1.6 6.4 0.00 0.00 0.00 64 1012.3
20260509174010 15 143 1.6 11.3 0.00 0.00 0.00 65 1012.2
20260509173506 16 131 3.2 11.3 0.00 0.00 0.00 63 1012.2
20260509173021 16 122 4.8 11.3 0.00 0.00 0.00 62 1012.1
20260509172511 16 157 4.8 9.7 0.00 0.00 0.00 63 1012.1
20260509172009 16 138 3.2 9.7 0.00 0.00 0.00 63 1012.1
20260509171535 16 149 3.2 8.0 0.00 0.00 0.00 65 1012.2
20260509171008 16 161 6.4 8.0 0.00 0.00 0.00 64 1012.1
20260509170509 16 112 3.2 9.7 0.00 0.00 0.00 64 1012.2
20260509170028 16 150 3.2 9.7 0.00 0.00 0.00 64 1012.3
20260509165506 16 90 3.2 9.7 0.00 0.00 0.00 65 1012.3
20260509165005 16 211 4.8 9.7 0.00 0.00 0.00 65 1012.4
20260509164509 16 139 1.6 11.3 0.00 0.00 0.00 63 1012.4
20260509164002 17 139 4.8 11.3 0.00 0.00 0.00 61 1012.3
20260509163507 17 212 1.6 9.7 0.00 0.00 0.00 63 1012.3
20260509163014 17 204 1.6 9.7 0.00 0.00 0.00 63 1012.3
20260509162508 17 126 3.2 8.0 0.00 0.00 0.00 62 1012.4
20260509162005 17 129 1.6 8.0 0.00 0.00 0.00 61 1012.4
20260509161519 17 134 3.2 8.0 0.00 0.00 0.00 61 1012.5
20260509161010 17 147 1.6 8.0 0.00 0.00 0.00 61 1012.6
20260509160506 17 110 1.6 11.3 0.00 0.00 0.00 64 1012.7
20260509160025 17 149 4.8 11.3 0.00 0.00 0.00 61 1012.7
20260509155509 17 199 3.2 9.7 0.00 0.00 0.00 62 1012.7
20260509155011 17 117 1.6 8.0 0.00 0.00 0.00 63 1012.7
20260509154507 17 127 3.2 8.0 0.00 0.00 0.00 61 1012.7
20260509154008 17 211 3.2 12.9 0.00 0.00 0.00 61 1012.7
20260509153505 17 118 1.6 14.5 0.00 0.00 0.00 63 1012.7
20260509153012 17 141 4.8 14.5 0.00 0.00 0.00 61 1012.8
20260509152503 17 88 4.8 12.9 0.00 0.00 0.00 62 1012.9
20260509152008 17 134 3.2 11.3 0.00 0.00 0.00 60 1012.9
20260509151503 18 127 3.2 6.4 0.00 0.00 0.00 60 1012.9
20260509151003 18 161 0.0 6.4 0.00 0.00 0.00 62 1013.0
20260509150502 17 226 1.6 11.3 0.00 0.00 0.00 62 1013.0
20260509150003 17 209 6.4 12.9 0.00 0.00 0.00 61 1013.0
20260509145505 17 100 6.4 12.9 0.00 0.00 0.00 60 1013.1
20260509145003 18 158 3.2 16.1 0.00 0.00 0.00 59 1013.1
20260509144502 18 145 3.2 16.1 0.00 0.00 0.00 60 1013.1
20260509144002 18 86 1.6 11.3 0.00 0.00 0.00 60 1013.1
20260509143505 18 300 3.2 12.9 0.00 0.00 0.00 60 1013.1
20260509143014 18 202 3.2 12.9 0.00 0.00 0.00 60 1013.1
20260509142505 18 326 3.2 11.3 0.00 0.00 0.00 58 1013.1
20260509142007 18 134 3.2 12.9 0.00 0.00 0.00 59 1013.1
20260509141521 18 117 4.8 12.9 0.00 0.00 0.00 59 1013.2
20260509141009 18 138 3.2 17.7 0.00 0.00 0.00 59 1013.2
20260509140510 18 138 3.2 17.7 0.00 0.00 0.00 59 1013.2
20260509140019 18 245 3.2 12.9 0.00 0.00 0.00 60 1013.2
20260509135503 18 210 4.8 12.9 0.00 0.00 0.00 61 1013.3
20260509135002 18 184 6.4 16.1 0.00 0.00 0.00 62 1013.3
20260509134503 18 195 6.4 16.1 0.00 0.00 0.00 59 1013.4
20260509134003 18 140 4.8 9.7 0.00 0.00 0.00 59 1013.4
20260509133503 18 142 3.2 9.7 0.00 0.00 0.00 61 1013.4
20260509133008 19 120 1.6 11.3 0.00 0.00 0.00 59 1013.3
20260509132503 19 20 3.2 11.3 0.00 0.00 0.00 58 1013.2
20260509132007 19 139 3.2 8.0 0.00 0.00 0.00 58 1013.3
20260509131518 18 94 1.6 9.7 0.00 0.00 0.00 60 1013.4
20260509131006 18 141 1.6 9.7 0.00 0.00 0.00 60 1013.4
20260509130506 18 136 1.6 9.7 0.00 0.00 0.00 59 1013.4
20260509130018 18 113 3.2 9.7 0.00 0.00 0.00 59 1013.5
20260509125509 18 205 4.8 9.7 0.00 0.00 0.00 59 1013.5
20260509125006 18 116 3.2 9.7 0.00 0.00 0.00 59 1013.4
20260509124522 18 166 1.6 6.4 0.00 0.00 0.00 62 1013.4
20260509124003 18 152 1.6 8.0 0.00 0.00 0.00 58 1013.4
20260509123502 18 82 1.6 8.0 0.00 0.00 0.00 60 1013.5
20260509123004 18 135 1.6 6.4 0.00 0.00 0.00 61 1013.6
20260509122503 18 150 1.6 6.4 0.00 0.00 0.00 61 1013.5
20260509122006 18 132 1.6 6.4 0.00 0.00 0.00 61 1013.5
20260509121518 18 283 1.6 4.8 0.00 0.00 0.00 61 1013.7
20260509121007 18 118 1.6 4.8 0.00 0.00 0.00 62 1013.7
20260509120503 17 139 0.0 4.8 0.00 0.00 0.00 62 1013.7
20260509120016 17 121 1.6 6.4 0.00 0.00 0.00 64 1013.7
20260509115505 17 264 1.6 6.4 0.00 0.00 0.00 62 1013.7
20260509115007 17 152 1.6 6.4 0.00 0.00 0.00 64 1013.7
20260509114517 17 278 0.0 6.4 0.00 0.00 0.00 64 1013.7
20260509114012 18 276 1.6 6.4 0.00 0.00 0.00 64 1013.7
20260509113509 18 269 1.6 6.4 0.00 0.00 0.00 64 1013.7
20260509113024 18 82 1.6 6.4 0.00 0.00 0.00 60 1013.6
20260509112510 18 162 0.0 6.4 0.00 0.00 0.00 61 1013.7
20260509112002 18 203 1.6 6.4 0.00 0.00 0.00 59 1013.7
20260509111508 18 112 1.6 6.4 0.00 0.00 0.00 60 1013.6
20260509111006 18 288 3.2 6.4 0.00 0.00 0.00 61 1013.7
20260509110502 18 287 1.6 9.7 0.00 0.00 0.00 61 1013.8
20260509110011 18 41 1.6 9.7 0.00 0.00 0.00 60 1013.9
20260509105504 18 270 3.2 9.7 0.00 0.00 0.00 60 1014.0
20260509105004 18 264 1.6 6.4 0.00 0.00 0.00 62 1014.1
20260509104528 18 288 1.6 6.4 0.00 0.00 0.00 62 1014.1
20260509104011 18 243 0.0 8.0 0.00 0.00 0.00 62 1014.0
20260509103507 18 68 1.6 8.0 0.00 0.00 0.00 57 1014.0
20260509103020 18 112 1.6 4.8 0.00 0.00 0.00 56 1014.1
20260509102510 18 269 1.6 6.4 0.00 0.00 0.00 62 1014.1
20260509102011 18 109 3.2 8.0 0.00 0.00 0.00 60 1014.0
20260509101522 19 138 3.2 8.0 0.00 0.00 0.00 58 1014.2
20260509101007 18 226 3.2 8.0 0.00 0.00 0.00 59 1014.1
20260509100507 18 141 1.6 8.0 0.00 0.00 0.00 58 1014.2
20260509100019 18 157 1.6 8.0 0.00 0.00 0.00 59 1014.1
20260509095503 18 302 1.6 4.8 0.00 0.00 0.00 58 1014.2
20260509095003 18 204 1.6 4.8 0.00 0.00 0.00 61 1014.3
20260509094518 17 86 1.6 9.7 0.00 0.00 0.00 64 1014.2
20260509094004 17 136 3.2 9.7 0.00 0.00 0.00 60 1014.1
20260509093506 16 336 1.6 6.4 0.00 0.00 0.00 64 1014.2
20260509093016 16 86 0.0 6.4 0.00 0.00 0.00 65 1014.2
20260509092507 16 100 0.0 6.4 0.00 0.00 0.00 64 1014.1
20260509092007 16 88 1.6 6.4 0.00 0.00 0.00 70 1014.1
20260509091521 15 289 3.2 4.8 0.00 0.00 0.00 67 1014.1
20260509091008 15 274 0.0 3.2 0.00 0.00 0.00 65 1014.1
20260509090511 16 309 1.6 3.2 0.00 0.00 0.00 63 1014.1
20260509090026 16 79 0.0 3.2 0.00 0.00 0.00 66 1014.0
20260509085509 15 94 0.0 3.2 0.00 0.00 0.00 66 1014.0
20260509085013 15 316 0.0 4.8 0.00 0.00 0.00 68 1014.1
20260509084531 15 26 1.6 4.8 0.00 0.00 0.00 68 1014.1
20260509084003 15 308 1.6 4.8 0.00 0.00 0.00 68 1014.1
20260509083504 16 335 1.6 4.8 0.00 0.00 0.00 63 1014.1
20260509083016 16 77 1.6 3.2 0.00 0.00 0.00 65 1014.1
20260509082510 16 350 1.6 3.2 0.00 0.00 0.00 61 1014.1
20260509082006 16 82 0.0 3.2 0.00 0.00 0.00 68 1014.1
20260509081521 16 79 1.6 3.2 0.00 0.00 0.00 70 1014.3
20260509081009 16 74 0.0 6.4 0.00 0.00 0.00 66 1014.3
20260509080509 16 106 1.6 6.4 0.00 0.00 0.00 66 1014.3
20260509080022 16 95 3.2 11.3 0.00 0.00 0.00 65 1014.4
20260509075510 16 188 3.2 11.3 0.00 0.00 0.00 61 1014.4
20260509075011 16 129 3.2 12.9 0.00 0.00 0.00 62 1014.4
20260509074524 15 131 1.6 12.9 0.00 0.00 0.00 66 1014.5
20260509074009 15 136 4.8 12.9 0.00 0.00 0.00 63 1014.5
20260509073508 15 113 4.8 11.3 0.00 0.00 0.00 64 1014.6
20260509073028 15 208 4.8 11.3 0.00 0.00 0.00 63 1014.8
20260509072507 15 144 1.6 6.4 0.00 0.00 0.00 65 1014.9
20260509072008 15 127 3.2 6.4 0.00 0.00 0.00 66 1014.9
20260509071517 15 114 3.2 8.0 0.00 0.00 0.00 66 1014.8
20260509071006 15 131 3.2 8.0 0.00 0.00 0.00 65 1014.8
20260509070507 15 153 3.2 16.1 0.00 0.00 0.00 64 1014.6
20260509070018 15 205 3.2 16.1 0.00 0.00 0.00 64 1014.8
20260509065512 15 158 3.2 8.0 0.00 0.00 0.00 64 1014.9
20260509065008 14 122 3.2 8.0 0.00 0.00 0.00 65 1015.1
20260509064505 14 155 3.2 8.0 0.00 0.00 0.00 66 1015.1
20260509064004 14 134 1.6 8.0 0.00 0.00 0.00 66 1015.0
20260509063506 13 102 3.2 8.0 0.00 0.00 0.00 66 1014.9
20260509063009 13 98 1.6 6.4 0.00 0.00 0.00 70 1015.0
20260509062507 13 83 1.6 4.8 0.00 0.00 0.00 70 1014.9
20260509062004 13 62 1.6 3.2 0.00 0.00 0.00 68 1015.0
20260509061512 13 101 0.0 3.2 0.00 0.00 0.00 69 1015.0
20260509061003 13 142 0.0 3.2 0.00 0.00 0.00 66 1015.0
20260509060507 13 145 0.0 1.6 0.00 0.00 0.00 68 1014.9
20260509060016 12 115 0.0 1.6 0.00 0.00 0.00 67 1014.8
20260509055506 12 115 0.0 1.6 0.00 0.00 0.00 69 1014.7
20260509055006 11 113 0.0 1.6 0.00 0.00 0.00 69 1014.6
20260509054507 11 113 0.0 1.6 0.00 0.00 0.00 70 1014.7
20260509054003 11 113 0.0 1.6 0.00 0.00 0.00 71 1014.7
20260509053504 11 113 0.0 1.6 0.00 0.00 0.00 74 1014.7
20260509053008 11 114 0.0 1.6 0.00 0.00 0.00 76 1014.6
20260509052504 10 114 0.0 1.6 0.00 0.00 0.00 77 1014.6
20260509052006 9 114 0.0 1.6 0.00 0.00 0.00 77 1014.6
20260509051515 9 80 0.0 1.6 0.00 0.00 0.00 77 1014.6
20260509051009 9 283 0.0 0.0 0.00 0.00 0.00 77 1014.6
20260509050508 9 283 0.0 1.6 0.00 0.00 0.00 77 1014.5
20260509050020 8 283 0.0 1.6 0.00 0.00 0.00 75 1014.5
20260509045505 8 283 0.0 1.6 0.00 0.00 0.00 75 1014.5
20260509045007 8 283 0.0 1.6 0.00 0.00 0.00 75 1014.5
20260509044520 8 285 0.0 1.6 0.00 0.00 0.00 76 1014.4
20260509044007 8 238 0.0 1.6 0.00 0.00 0.00 76 1014.3
20260509043510 8 136 0.0 1.6 0.00 0.00 0.00 77 1014.2
20260509043023 8 136 0.0 1.6 0.00 0.00 0.00 75 1014.1
20260509042503 8 136 0.0 1.6 0.00 0.00 0.00 75 1014.1
20260509042002 8 136 0.0 1.6 0.00 0.00 0.00 72 1014.1
20260509041507 10 127 0.0 3.2 0.00 0.00 0.00 71 1014.0
20260509041004 10 122 0.0 3.2 0.00 0.00 0.00 68 1014.0
20260509040503 10 123 0.0 3.2 0.00 0.00 0.00 67 1014.0
20260509040010 10 193 0.0 3.2 0.00 0.00 0.00 67 1014.0
20260509035507 10 148 0.0 3.2 0.00 0.00 0.00 67 1014.0
20260509035004 10 254 0.0 3.2 0.00 0.00 0.00 67 1014.0
20260509034516 10 163 0.0 3.2 0.00 0.00 0.00 66 1014.1
20260509034010 10 167 0.0 3.2 0.00 0.00 0.00 66 1014.3
20260509033505 10 138 0.0 3.2 0.00 0.00 0.00 66 1014.2
20260509033020 10 261 0.0 3.2 0.00 0.00 0.00 66 1014.3
20260509032507 10 264 1.6 3.2 0.00 0.00 0.00 65 1014.3
20260509032010 10 130 0.0 3.2 0.00 0.00 0.00 66 1014.3
20260509031525 10 255 0.0 3.2 0.00 0.00 0.00 67 1014.4
20260509031013 10 158 0.0 1.6 0.00 0.00 0.00 67 1014.3
20260509030504 10 119 0.0 1.6 0.00 0.00 0.00 66 1014.3
20260509030008 10 159 0.0 3.2 0.00 0.00 0.00 64 1014.3
20260509025504 10 137 0.0 3.2 0.00 0.00 0.00 64 1014.4
20260509025007 10 141 0.0 3.2 0.00 0.00 0.00 64 1014.4
20260509024510 10 141 0.0 4.8 0.00 0.00 0.00 64 1014.4
20260509024005 11 117 0.0 4.8 0.00 0.00 0.00 63 1014.4
20260509023508 11 127 0.0 3.2 0.00 0.00 0.00 64 1014.4
20260509023018 10 122 1.6 8.0 0.00 0.00 0.00 65 1014.3
20260509022505 10 131 1.6 8.0 0.00 0.00 0.00 65 1014.3
20260509022006 10 121 0.0 3.2 0.00 0.00 0.00 66 1014.4
20260509021521 10 124 0.0 1.6 0.00 0.00 0.00 67 1014.4
20260509021009 10 124 0.0 1.6 0.00 0.00 0.00 66 1014.4
20260509020511 10 319 0.0 1.6 0.00 0.00 0.00 66 1014.5
20260509020025 10 133 0.0 3.2 0.00 0.00 0.00 66 1014.5
20260509015510 10 120 0.0 3.2 0.00 0.00 0.00 65 1014.4
20260509015012 10 146 0.0 1.6 0.00 0.00 0.00 65 1014.4
20260509014510 10 132 0.0 1.6 0.00 0.00 0.00 65 1014.4
20260509014002 10 150 0.0 1.6 0.00 0.00 0.00 65 1014.5
20260509013506 10 188 0.0 6.4 0.00 0.00 0.00 64 1014.5
20260509013033 10 148 0.0 6.4 0.00 0.00 0.00 64 1014.5
20260509012506 10 140 0.0 4.8 0.00 0.00 0.00 64 1014.6
20260509012007 10 124 1.6 8.0 0.00 0.00 0.00 64 1014.6
20260509011519 10 105 3.2 8.0 0.00 0.00 0.00 64 1014.7
20260509011005 10 136 0.0 4.8 0.00 0.00 0.00 65 1014.9
20260509010506 10 240 1.6 4.8 0.00 0.00 0.00 65 1014.8
20260509010022 10 140 0.0 3.2 0.00 0.00 0.00 66 1014.9
20260509005508 10 115 0.0 3.2 0.00 0.00 0.00 66 1014.9
20260509005011 10 104 0.0 3.2 0.00 0.00 0.00 67 1015.0
20260509004526 10 138 0.0 1.6 0.00 0.00 0.00 67 1015.1
20260509004009 10 146 0.0 3.2 0.00 0.00 0.00 67 1015.1
20260509003515 10 144 0.0 4.8 0.00 0.00 0.00 68 1015.1
20260509003027 10 178 0.0 4.8 0.00 0.00 0.00 69 1015.1
20260509002505 9 136 0.0 1.6 0.00 0.00 0.00 72 1015.1
20260509002002 8 148 0.0 1.6 0.00 0.00 0.00 75 1015.1
20260509001516 8 162 0.0 1.6 0.00 0.00 0.00 80 1015.2
20260509001008 8 166 0.0 0.0 0.00 0.00 0.00 81 1015.1
20260509000505 9 167 0.0 0.0 0.00 0.00 0.00 80 1015.1
20260509000020 9 167 0.0 1.6 0.00 0.00 0.00 78 1015.1
20260508235502 10 254 0.0 1.6 0.00 0.00 0.00 75 1015.1
20260508235004 10 153 0.0 1.6 0.00 0.00 0.00 75 1015.1
20260508234506 10 153 0.0 1.6 0.00 0.00 0.00 69 1015.1
20260508234003 10 116 0.0 1.6 0.00 0.00 0.00 69 1015.1
20260508233503 11 116 0.0 3.2 0.00 0.00 0.00 70 1015.1
20260508233008 11 99 0.0 3.2 0.00 0.00 0.00 68 1015.1
20260508232502 11 130 0.0 4.8 0.00 0.00 0.00 65 1015.0
20260508232006 11 122 1.6 4.8 0.00 0.00 0.00 63 1014.9
20260508231505 11 89 1.6 4.8 0.00 0.00 0.00 63 1015.0
20260508231004 11 134 1.6 3.2 0.00 0.00 0.00 64 1015.0
20260508230503 11 111 0.0 1.6 0.00 0.00 0.00 65 1015.0
20260508230017 11 137 0.0 1.6 0.00 0.00 0.00 66 1015.1
20260508225503 11 137 0.0 1.6 0.00 0.00 0.00 66 1015.1
20260508225004 11 121 0.0 1.6 0.00 0.00 0.00 67 1015.1
20260508224510 11 121 0.0 0.0 0.00 0.00 0.00 67 1015.1
20260508224003 11 120 0.0 1.6 0.00 0.00 0.00 65 1015.1
20260508223506 11 120 0.0 1.6 0.00 0.00 0.00 59 1015.1
20260508223012 11 117 0.0 3.2 0.00 0.00 0.00 59 1015.1
20260508222507 11 125 0.0 4.8 0.00 0.00 0.00 59 1015.2
20260508222005 11 178 0.0 4.8 0.00 0.00 0.00 59 1015.2
20260508221506 11 129 0.0 3.2 0.00 0.00 0.00 59 1015.2
20260508221003 11 148 0.0 3.2 0.00 0.00 0.00 59 1015.1
20260508220504 11 123 1.6 3.2 0.00 0.00 0.00 59 1015.2
20260508220012 11 149 0.0 3.2 0.00 0.00 0.00 60 1015.2
20260508215504 11 179 0.0 3.2 0.00 0.00 0.00 61 1015.2
20260508215004 11 167 0.0 1.6 0.00 0.00 0.00 62 1015.3
20260508214512 10 233 0.0 1.6 0.00 0.00 0.00 64 1015.3